User: anonymous   Login
Location: Campillo
(40.8621°N, 4.2488°W)
Time: 17:11:10
(UTC+00:00)
Language:

Cosmos 1680 Rocket - Orbit

View from above orbital plane
View from above orbital plane
View from above satellite
View from above satellite

Ground track
Ground track

The orbit data is extracted from the following two-line orbital elements,

1 16012U 85079B   21211.09027594 -.00000031  00000-0 -16428-5 0  9994
2 16012  74.0583 256.6325 0014126 148.6089 211.5910 14.36377425879711
Epoch (UTC): 30 July 2021 02:09:59
Eccentricity: 0.0014126
inclination: 74.0583°
perigee height: 760 km
apogee height: 780 km
right ascension of ascending node: 256.6325°
argument of perigee: 148.6089°
revolutions per day: 14.36377425
mean anomaly at epoch: 211.5910°
orbit number at epoch: 87971

The dashed part of the orbit path shows where the satellite is in the earth's shadow,  

DLR